When you browse on this site, cookies collect data to enhance your experience and personalize the content and advertising you see.
Visit our Privacy Policy to learn more. By continuing to use the site, you agree to this use of cookies and data.
  • en France
  • Liste des pays
  • À 7 jours
  • Température de l'eau
  • Carte satellitaire
  • Carte météo
  • Widgets météo
  • user-avatar
    Se connecter

    Météo par heure à Vilcun

    Ce jour, 19 Juillet, Vendredi

    Heure Température Précipitation Vent Pression Humidité
    00:00 +5°C° 0 mm 1 m/s 735 mmHg 89%
    01:00 +5°C° 0 mm 1 m/s 735 mmHg 88%
    02:00 +5°C° 0 mm 1 m/s 735 mmHg 87%
    03:00 +4°C° 0 mm 2 m/s 734 mmHg 87%
    04:00 +4°C° 0 mm 2 m/s 734 mmHg 87%
    05:00 +5°C° 0 mm 2 m/s 733 mmHg 84%
    06:00 +4°C° 0 mm 3 m/s 733 mmHg 80%
    07:00 +4°C° 0 mm 4 m/s 732 mmHg 77%
    08:00 +4°C° 0.1 mm 4 m/s 732 mmHg 80%
    09:00 +5°C° 0.1 mm 4 m/s 732 mmHg 82%
    10:00 +5°C° 0.1 mm 5 m/s 732 mmHg 84%
    11:00 +5°C° 0.8 mm 5 m/s 732 mmHg 87%
    12:00 +5°C° 0.8 mm 5 m/s 731 mmHg 89%
    13:00 +5°C° 0.8 mm 4 m/s 731 mmHg 92%
    14:00 +5°C° 2.9 mm 3 m/s 731 mmHg 94%
    15:00 +5°C° 2.9 mm 3 m/s 731 mmHg 96%
    16:00 +6°C° 2.9 mm 2 m/s 731 mmHg 98%
    17:00 +6°C° 1.5 mm 2 m/s 731 mmHg 97%
    18:00 +5°C° 1.5 mm 2 m/s 731 mmHg 96%
    19:00 +5°C° 1.5 mm 2 m/s 731 mmHg 95%
    20:00 +6°C° 0.4 mm 2 m/s 731 mmHg 95%
    21:00 +6°C° 0.4 mm 2 m/s 731 mmHg 95%
    22:00 +6°C° 0.4 mm 2 m/s 731 mmHg 95%
    23:00 +6°C° 0.2 mm 2 m/s 731 mmHg 95%

    Demain, 20 Juillet, Samedi

    Heure Température Précipitation Vent Pression Humidité
    00:00 +6°C° 0.2 mm 2 m/s 730 mmHg 96%
    01:00 +7°C° 0.2 mm 3 m/s 729 mmHg 96%
    02:00 +7°C° 0.6 mm 2 m/s 729 mmHg 96%
    03:00 +7°C° 0.6 mm 2 m/s 728 mmHg 96%
    04:00 +7°C° 0.6 mm 2 m/s 728 mmHg 96%
    05:00 +7°C° 1.1 mm 3 m/s 727 mmHg 96%
    06:00 +6°C° 1.1 mm 4 m/s 726 mmHg 95%
    07:00 +6°C° 1.1 mm 4 m/s 725 mmHg 94%
    08:00 +6°C° 1 mm 5 m/s 724 mmHg 94%
    09:00 +5°C° 1 mm 6 m/s 724 mmHg 93%
    10:00 +5°C° 1 mm 6 m/s 723 mmHg 93%
    11:00 +5°C° 3.3 mm 6 m/s 722 mmHg 93%
    12:00 +5°C° 3.3 mm 6 m/s 721 mmHg 94%
    13:00 +5°C° 3.3 mm 6 m/s 720 mmHg 94%
    14:00 +6°C° 7 mm 5 m/s 720 mmHg 95%
    15:00 +5°C° 7 mm 4 m/s 720 mmHg 96%
    16:00 +5°C° 7 mm 4 m/s 720 mmHg 96%
    17:00 +5°C° 2.1 mm 4 m/s 720 mmHg 96%
    18:00 +4°C° 2.1 mm 4 m/s 721 mmHg 95%
    19:00 +4°C° 2.1 mm 4 m/s 722 mmHg 94%
    20:00 +3°C° 0.4 mm 4 m/s 723 mmHg 93%
    21:00 +2°C° 0.4 mm 3 m/s 724 mmHg 93%
    22:00 +2°C° 0.4 mm 3 m/s 725 mmHg 92%
    23:00 +2°C° 0.5 mm 3 m/s 725 mmHg 93%

    Après-demain, 21 Juillet, Dimanche

    Heure Température Précipitation Vent Pression Humidité
    00:00 +2°C° 0.5 mm 3 m/s 726 mmHg 93%
    01:00 +1°C° 0.5 mm 4 m/s 726 mmHg 94%
    02:00 +1°C° 0.5 mm 4 m/s 726 mmHg 94%
    03:00 +1°C° 0.5 mm 4 m/s 727 mmHg 94%
    04:00 +1°C° 0.5 mm 4 m/s 727 mmHg 94%
    05:00 +2°C° 0.5 mm 3 m/s 728 mmHg 94%
    06:00 +2°C° 0.5 mm 3 m/s 728 mmHg 94%
    07:00 +1°C° 0.5 mm 3 m/s 728 mmHg 94%
    08:00 +2°C° 0.6 mm 3 m/s 729 mmHg 93%
    09:00 +3°C° 0.6 mm 3 m/s 730 mmHg 91%
    10:00 +3°C° 0.6 mm 3 m/s 731 mmHg 90%
    11:00 +3°C° 0.8 mm 3 m/s 731 mmHg 90%
    12:00 +3°C° 0.8 mm 3 m/s 731 mmHg 90%
    13:00 +3°C° 0.8 mm 3 m/s 731 mmHg 90%
    14:00 +3°C° 0.8 mm 3 m/s 731 mmHg 90%
    15:00 +3°C° 0.8 mm 3 m/s 732 mmHg 91%
    16:00 +4°C° 0.8 mm 2 m/s 732 mmHg 92%
    17:00 +3°C° 0.6 mm 2 m/s 733 mmHg 93%
    18:00 +3°C° 0.6 mm 1 m/s 733 mmHg 95%
    19:00 +3°C° 0.6 mm 1 m/s 734 mmHg 97%
    20:00 +2°C° 0.4 mm 1 m/s 735 mmHg 97%
    21:00 +2°C° 0.4 mm 1 m/s 735 mmHg 97%
    22:00 +2°C° 0.4 mm 1 m/s 736 mmHg 98%
    23:00 +2°C° 0.1 mm 1 m/s 736 mmHg 97%

    22 Juillet, Lundi

    Heure Température Précipitation Vent Pression Humidité
    00:00 +2°C° 0.1 mm 1 m/s 737 mmHg 97%
    01:00 +2°C° 0.1 mm 1 m/s 737 mmHg 97%
    02:00 +2°C° 0.1 mm 1 m/s 737 mmHg 97%
    03:00 +2°C° 0.1 mm 1 m/s 738 mmHg 97%
    04:00 +2°C° 0.1 mm 1 m/s 738 mmHg 97%
    05:00 +2°C° 0.1 mm 1 m/s 738 mmHg 97%
    06:00 +1°C° 0.1 mm 1 m/s 738 mmHg 97%
    07:00 +1°C° 0.1 mm 1 m/s 738 mmHg 97%
    08:00 +3°C° 0 mm 1 m/s 739 mmHg 93%
    09:00 +4°C° 0 mm 1 m/s 739 mmHg 90%
    10:00 +6°C° 0 mm 1 m/s 740 mmHg 87%
    11:00 +6°C° 0.2 mm 1 m/s 739 mmHg 84%
    12:00 +7°C° 0.2 mm 1 m/s 739 mmHg 81%
    13:00 +8°C° 0.2 mm 1 m/s 739 mmHg 78%
    14:00 +6°C° 0.2 mm 0 m/s 739 mmHg 82%
    15:00 +6°C° 0.2 mm 0 m/s 739 mmHg 85%
    16:00 +5°C° 0.2 mm 0 m/s 739 mmHg 88%
    17:00 +4°C° 0 mm 0 m/s 739 mmHg 91%
    18:00 +3°C° 0 mm 0 m/s 740 mmHg 93%
    19:00 +2°C° 0 mm 1 m/s 740 mmHg 95%
    20:00 +2°C° 0 mm 1 m/s 740 mmHg 95%
    21:00 +1°C° 0 mm 1 m/s 740 mmHg 95%
    22:00 +1°C° 0 mm 1 m/s 740 mmHg 95%
    23:00 0°C° 0 mm 1 m/s 740 mmHg 95%

    23 Juillet, Mardi

    Heure Température Précipitation Vent Pression Humidité
    00:00 0°C° 0 mm 1 m/s 740 mmHg 95%
    01:00 0°C° 0 mm 1 m/s 740 mmHg 95%
    02:00 0°C° 0 mm 1 m/s 740 mmHg 95%
    03:00 -1°C° 0 mm 1 m/s 740 mmHg 95%
    04:00 -1°C° 0 mm 1 m/s 740 mmHg 95%
    05:00 -1°C° 0 mm 1 m/s 740 mmHg 94%
    06:00 -1°C° 0 mm 1 m/s 740 mmHg 94%
    07:00 -1°C° 0 mm 1 m/s 740 mmHg 93%
    08:00 +1°C° 0 mm 1 m/s 740 mmHg 89%
    09:00 +2°C° 0 mm 1 m/s 740 mmHg 84%
    10:00 +4°C° 0 mm 1 m/s 740 mmHg 80%
    11:00 +4°C° 0 mm 2 m/s 740 mmHg 78%
    12:00 +5°C° 0 mm 2 m/s 740 mmHg 77%
    13:00 +6°C° 0 mm 2 m/s 739 mmHg 75%
    14:00 +6°C° 0 mm 2 m/s 739 mmHg 78%
    15:00 +5°C° 0 mm 2 m/s 739 mmHg 81%
    16:00 +5°C° 0 mm 2 m/s 739 mmHg 85%
    17:00 +3°C° 0 mm 2 m/s 739 mmHg 88%
    18:00 +3°C° 0 mm 1 m/s 739 mmHg 92%
    19:00 +1°C° 0 mm 1 m/s 740 mmHg 96%
    20:00 +1°C° 0 mm 1 m/s 740 mmHg 95%
    21:00 +1°C° 0 mm 1 m/s 740 mmHg 95%
    22:00 0°C° 0 mm 1 m/s 739 mmHg 94%
    23:00 0°C° 0 mm 1 m/s 739 mmHg 94%

    24 Juillet, Mercredi

    Heure Température Précipitation Vent Pression Humidité
    00:00 0°C° 0 mm 1 m/s 739 mmHg 94%
    01:00 -1°C° 0 mm 1 m/s 739 mmHg 93%
    02:00 -1°C° 0 mm 1 m/s 739 mmHg 93%
    03:00 -1°C° 0 mm 1 m/s 739 mmHg 92%
    04:00 -1°C° 0 mm 1 m/s 739 mmHg 91%
    05:00 -1°C° 0 mm 1 m/s 739 mmHg 90%
    06:00 -1°C° 0 mm 1 m/s 739 mmHg 90%
    07:00 -1°C° 0 mm 1 m/s 739 mmHg 89%
    08:00 +1°C° 0 mm 1 m/s 739 mmHg 81%
    09:00 +4°C° 0 mm 1 m/s 739 mmHg 73%
    10:00 +6°C° 0 mm 1 m/s 739 mmHg 65%
    11:00 +8°C° 0 mm 1 m/s 739 mmHg 63%
    12:00 +9°C° 0 mm 1 m/s 738 mmHg 61%
    13:00 +10°C° 0 mm 1 m/s 738 mmHg 59%
    14:00 +10°C° 0 mm 1 m/s 738 mmHg 66%
    15:00 +9°C° 0 mm 1 m/s 738 mmHg 72%
    16:00 +8°C° 0 mm 1 m/s 738 mmHg 79%
    17:00 +6°C° 0 mm 1 m/s 738 mmHg 82%
    18:00 +5°C° 0 mm 1 m/s 738 mmHg 86%
    19:00 +3°C° 0 mm 1 m/s 739 mmHg 89%
    20:00 +3°C° 0 mm 1 m/s 738 mmHg 88%
    21:00 +2°C° 0 mm 1 m/s 738 mmHg 87%
    22:00 +2°C° 0 mm 1 m/s 738 mmHg 86%
    23:00 +2°C° 0 mm 1 m/s 738 mmHg 85%
    Voir plus